Regional Weather Roundup
Issued by NWS

Home | Current Version | Previous Version | Graphics & Text | Print | Product List | Glossary On
Versions: 1 2 3 4 5 6 7 8 9 10 11 12 13 14 15 16 17 18 19 20 21 22 23 24 25 26 27 28 29 30 31 32 33 34 35 36 37 38 39 40 41 42 43 44 45 46 47 48 49 50
000
ASUS45 KTFX 070310
RWRMT
MONTANA REGIONAL WEATHER ROUNDUP
NATIONAL WEATHER SERVICE GREAT FALLS MT
900 PM MDT MON JUL 06 2015

NOTE: "FAIR" INDICATES FEW OR NO CLOUDS BELOW 12000 FEET WITH NO
SIGNIFICANT WEATHER AND/OR OBSTRUCTIONS TO VISIBILITY.

MTZ001>007-043-070400-
WEST OF THE DIVIDE

CITY           SKY/WX    TMP DP  RH WIND       PRES   REMARKS
KALISPELL      CLEAR     72  42  34 CALM      30.00F
MISSOULA       CLEAR     77  27  15 CALM      30.02F
BUTTE          PTCLDY    73  34  23 N9        30.15R
MULLAN PASS    PTCLDY    65  36  34 NW3       30.19F
DEER LODGE       N/A     70  34  26 W6        30.14R
EUREKA           N/A     81  43  26 CALM      29.97F
HAMILTON         N/A     75  36  23 NW9       30.03S
LIBBY            N/A     81  46  30 CALM      29.97S
RONAN            N/A     75  48  38 CALM      30.07F
$$

MTZ008-052>055-070400-
SOUTHWEST MONTANA

CITY           SKY/WX    TMP DP  RH WIND       PRES   REMARKS
BOZEMAN        CLEAR     72  49  44 SE12      30.07R
DILLON         PTCLDY    70  52  52 NE8       30.09R
W YELLOWSTONE  PTCLDY    63  50  63 W5        30.20S
$$

MTZ009-010-012-014-046-048-049-054-070400-
EAST SLOPES AND CENTRAL MONTANA

CITY           SKY/WX    TMP DP  RH WIND       PRES   REMARKS
CUT BANK       CLEAR     65  44  46 SE9       30.08S
GREAT FALLS    CLEAR     67  48  50 E9        30.08S
MALMSTROM AFB  CLEAR     65  51  60 NE7       30.08S
HELENA         CLEAR     77  48  35 N7        30.05R
CONRAD           N/A     63  54  72 E1        30.11S
$$

MTZ011-013-016-021-045-047-050-051-070400-
NORTH CENTRAL MONTANA

CITY           SKY/WX    TMP DP  RH WIND       PRES   REMARKS
HAVRE          CLEAR     69  49  48 E9        30.07S
LEWISTOWN      CLEAR     65  50  58 E7        30.13S
CHINOOK          N/A     68  46  45 E6        30.07F
FORT BENTON      N/A     70  54  56 N5        30.07S
$$

MTZ017>020-022>027-061-062-070400-
NORTHEAST MONTANA

CITY           SKY/WX    TMP DP  RH WIND       PRES   REMARKS
GLASGOW        CLEAR     66  45  46 SE6       30.11S
JORDAN           N/A     68  47  46 E7        30.11S
SIDNEY         CLEAR     64  52  63 E5        30.15R
WOLF POINT     CLEAR     65  51  60 E3        30.12S HAZE
MALTA            N/A     70  49  47 CALM      30.06S
PLENTYWOOD       N/A     61  50  67 E6        30.14S
POPLAR           N/A     63  54  72 E5        30.13S
SCOBEY           N/A     62  45  53 S6        30.12S
$$

MTZ028>42-056>058-070400-
SOUTHCENTRAL AND SOUTHEAST MONTANA

CITY           SKY/WX    TMP DP  RH WIND       PRES   REMARKS
BAKER          CLEAR     61  48  62 E5        30.17S
BILLINGS       PTCLDY    68  51  54 SE13      30.13S
LIVINGSTON     CLEAR     69  49  48 E17       30.10R
MILES CITY     CLEAR     70  45  40 SE3       30.12S
FORSYTH          N/A     66  48  52 SE5       30.12S
LAUREL           N/A     66  49  54 NE5       30.10F
ROUNDUP          N/A     67  42  40 CALM      30.04S
$$

REGIONAL REPORTS...DAKOTAS

CITY           SKY/WX    TMP DP  RH WIND       PRES   REMARKS
WILLISTON      CLEAR     63  47  55 E7        30.16S
MINOT          CLEAR     56  50  80 CALM      30.15S
DICKINSON      CLEAR     57  52  83 NE6       30.16R HAZE
BEACH          FAIR      55  54  94 E5        30.17S
CROSBY         FAIR      57  54  88 CALM      30.16S
BISMARCK       CLEAR     61  51  70 NE6       30.16R
GRAND FORKS    CLEAR     52  48  86 NW6       30.12S
FARGO          CLEAR     58  46  64 N8        30.12R
BUFFALO SD       N/A     62  50  64 NE9       30.11S
RAPID CITY     MOCLDY    63  57  81 NW5       30.18S
$$

REGIONAL REPORTS...WYOMING/IDAHO/WASHINGTON

CITY           SKY/WX    TMP DP  RH WIND       PRES   REMARKS
GILLETTE       CLEAR     59  52  77 E5        30.20S
SHERIDAN       MOCLDY    62  54  74 E3        30.16F
BUFFALO WY     CLEAR     59  54  83 S8        30.22S
CODY           CLOUDY    64  54  68 SE5       30.18S
YELLOWSTONE LA   N/A     57  51  80 CALM      30.31R
IDAHO FALLS    PTCLDY    69  60  73 CALM      30.10R
SALMON         PTCLDY    79  36  21 NW5       30.00R
BOISE          PTCLDY    88  49  25 CALM      29.93S
SPOKANE        MOCLDY    87  41  19 E9        29.91F
$$

REGIONAL REPORTS...ALBERTA

CITY           SKY/WX    TMP DP  RH WIND       PRES   REMARKS
EDMONTON       CLEAR     68  48  49 N3        30.02R
CALGARY        SHOWER    63  50  63 N21G29    30.10R
MEDICINE HAT   PTCLDY    72  45  37 SW2       30.03F
WATERTON GATE    N/A     66  43  42 SW9         N/A
CARDSTON         N/A     66  50  55 S5          N/A
ONEFOUR          N/A     64  43  45 SE9         N/A
$$

REGIONAL REPORTS...SASKATCHEWAN

CITY           SKY/WX    TMP DP  RH WIND       PRES   REMARKS
SWIFT CURRENT  CLEAR     61  50  67 S8        30.08F
REGINA         MOCLDY    61  45  55 E7        30.13S
SASKATOON      MOCLDY    64  48  55 S10       30.07F
CYPRESS HILLS    N/A     57  43  58 SE5         N/A
VAL MARIE        N/A     63  45  51 SE7         N/A
ROCKGLEN         N/A     61  46  59 E3          N/A
$$



USA.gov is the U.S. government's official web portal to all federal, state and local government web resources and services.